SKYMED 2

导读 | 星芒AI

SKYMED 2 是意大利“SkyMed”地球观测卫星星座的第二颗卫星,由泰雷兹阿莱尼亚宇航公司研制,于2007年发射。该卫星搭载合成孔径雷达(SAR)系统,可在全天候、全天时条件下提供高分辨率雷达图像,广泛应用于灾害监测、环境评估和安全领域。SKYMED 2 与星座中的其他卫星协同工作,提高了对地观测的频率和覆盖能力,是欧洲重要的遥感资源之一。

基本信息
目录编号:
32376
目录名称:
SKYMED 2
国际标识:
2007-059A
轨道中心:
EARTH
卫星名称:
SKYMED 2
卫星全名:
--
卫星状态:
在轨 (已飞行6579 天)
发射日期:
2007-12-09 UTC
国别 :
意大利 (IT)
星等 :
--
轨道信息
数据来源 国际轨道数据 AOE轨道数据
星历时间 2025-12-13T08:49:47+0800
9小时前
查看轨道信息
2025-12-13T06:00:00+0800
12小时前
查看轨道信息
半长轴 7000.63km 7000.652km
偏心率 0.0001501 0.0003819
轨道倾角 97.881° 97.897°
近地点辐角 84.164° 97.378°
升交点赤经 168.354° 168.248°
平近点角 275.974° 353.964°
近地点 621.444km 619.843km
远地点 623.546km 625.191km
周期 97.155分钟 97.156分钟
每日圈数 14.82167 14.821598
详细信息
使用方式:
暂无
2D轨道图
3D轨道图
轨道高度分析图
轨道倾角分析图
轨道综合分析图
查看轨道综合分析图